Location: Overspoor
(51.4747°N, 5.6641°E)
Time: 01:10:43
(UTC+02:00)

KKS-1 - Pass Details

Date: 26 June 2022
Orbit: 635 x 648 km, 98.2° (Epoch: 07 August)

Event Time Altitude Azimuth Distance (km) Brightness Sun altitude
Rises 00:31:59 0° 9° (N) 2,981 ? -13.7°
Reaches altitude 10° 00:34:18 10° 2° (N) 2,065 ? -13.8°
Maximum altitude 00:38:31 41° 293° (WNW) 948 ? -13.9°
Drops below altitude 10° 00:42:42 10° 224° (SW) 2,047 ? -14.1°
Enters shadow 00:43:26 - 221° (SW) 2,333 ? -14.1°
